Regional Weather Roundup
Issued by NWS Little Rock, AR

Home | Current Version | Previous Version | Graphics & Text | Print | Product List | Glossary On
Versions: 1 2 3 4 5 6 7 8 9 10 11 12 13 14 15 16 17 18 19 20 21 22 23 24 25 26 27 28 29 30 31
000
ASUS44 KLZK 230305
RWRLZK

WEATHER ROUNDUP FOR ARKANSAS
NATIONAL WEATHER SERVICE LITTLE ROCK AR
1000 PM CDT SAT APR 22 2017

NOTE: "FAIR" INDICATES FEW OR NO CLOUDS BELOW 12,000 FEET WITH NO
SIGNIFICANT WEATHER AND/OR OBSTRUCTIONS TO VISIBILITY.

ARZ001-003-010-029-230400-
NORTHWEST ARKANSAS

CITY           SKY/WX    TMP DP  RH WIND       PRES   REMARKS
FAYETTEVILLE   CLOUDY    47  45  93 CALM      30.11R
FORT SMITH     CLOUDY    52  44  74 N8        30.10R
HARRISON       CLOUDY    46  45  96 NW3       30.09R
BENTONVILLE    CLOUDY    46  43  87 CALM      30.11R
ROGERS         CLOUDY    47  44  90 E5        30.11R
SILOAM SPGS    CLOUDY    46  41  81 N5        30.10S
HIGHFILL       CLOUDY    48  44  86 NE3       30.10R
$$

ARZ004-005-016-230400-
NORTH CENTRAL ARKANSAS

CITY           SKY/WX    TMP DP  RH WIND       PRES   REMARKS
BATESVILLE     CLOUDY    48  45  87 NW5       30.05R
FLIPPIN        CLOUDY    48  43  81 N7        30.06R
MTN HOME       LGT RAIN  47  44  90 CALM      30.06R
$$

ARZ040-041-230400-
WEST CENTRAL ARKANSAS

CITY           SKY/WX    TMP DP  RH WIND       PRES   REMARKS
MENA           CLOUDY    52  50  93 N7        30.07R
MOUNT IDA      CLOUDY    51  47  86 VRB3      30.03R
$$

ARZ009-017-025-026-028-230400-
NORTHEAST ARKANSAS

CITY           SKY/WX    TMP DP  RH WIND       PRES   REMARKS
CORNING        CLOUDY    50  48  93 N10G17    30.03R
JONESBORO      CLOUDY    50  47  89 N7G17     30.00R
NEWPORT        CLOUDY    49  48  97 N13       30.02R FOG
WALNUT RIDGE   CLOUDY    50  45  81 N14       30.02R
BLYTHEVILLE    CLOUDY    51  51 100 N15       29.97S
$$

ARZ022-023-033-042-044-230400-
CENTRAL ARKANSAS

CITY           SKY/WX    TMP DP  RH WIND       PRES   REMARKS
LITTLE ROCK    CLOUDY    52  50  93 N14       30.03R
N LITTLE ROCK    N/A     50  49  93 N6        30.04R
JACKSONVILLE   LGT RAIN  54  50  87 NW10      30.02R
CONWAY           N/A     52  50  93 N12       30.04R
SEARCY         CLOUDY    51  48  89 N13       30.04R
HOT SPRINGS    CLOUDY    53  50  89 N6        30.04R
RUSSELLVILLE   CLOUDY    52  46  80 N9        30.06R
$$

ARZ036-230400-
EAST ARKANSAS

CITY           SKY/WX    TMP DP  RH WIND       PRES   REMARKS
WEST MEMPHIS   LGT RAIN  51  51 100 N9        29.96R FOG
$$

ARZ050-053-066-070-073-230400-
SOUTHWEST ARKANSAS

CITY           SKY/WX    TMP DP  RH WIND       PRES   REMARKS
ARKADELPHIA    CLOUDY    55  49  80 NW8       30.05R
CAMDEN         CLOUDY    54  48  82 NW9       30.02S
TEXARKANA      CLOUDY    53  45  74 NW12      30.07R
EL DORADO      CLOUDY    55  49  80 NW14      30.02R
DE QUEEN       CLOUDY    52  45  77 VRB5      30.07R
$$

ARZ056-057-069-230400-
SOUTHEAST ARKANSAS

CITY           SKY/WX    TMP DP  RH WIND       PRES   REMARKS
PINE BLUFF     CLOUDY    52  50  93 N10       30.02R
STUTTGART      CLOUDY    54  41  62 N13       30.01S
MONTICELLO     CLOUDY    55  52  89 VRB5      29.98R

$$






USA.gov is the U.S. government's official web portal to all federal, state and local government web resources and services.